[[{"header":{"parameterUnit":"m.s-1","parameterCategory":1,"la1":30.2991,"la2":30.254,"lo1":-89.0895,"lo2":-89.0444,"dy":0.0017,"dx":0.0017,"nx":28,"ny":28,"refTime":"2024-07-11T21:00:00:Z","depth":0,"parameterNumber":2,"parameterNumberName":"U-component_of_WINDS"},"data":[0,0,0,0,0,0,0,0,0,0,0,0,0,0,0,0,0,0,0,0,0,0,0,0,0,0,0,0,0,0,0,0,0,0,0,0,0,0,0,0,0,0,0,0,0,0,0,0,0,0,0,0,0,0,0,0,0,0,1.7501,1.7503,0,1.7669,1.7671,1.7673,1.7721,1.772,1.7719,1.7718,1.7892,1.7897,1.7903,0,0,0,0,0,0,0,0,0,0,0,0,0,1.7222,1.7227,1.7501,1.7503,1.7505,1.7669,1.7671,1.7674,1.7721,1.772,1.7719,1.7718,1.789,1.7897,1.7903,0,0,0,0,0,0,0,0,0,0,0,0,0,1.7362,1.7229,1.7501,1.7549,1.7555,1.7669,1.7671,1.7674,1.7721,1.772,1.7718,1.7717,1.7888,1.7896,1.7904,1.7983,0,0,1.7929,1.7933,0,0,0,0,0,0,0,0,1.7354,1.7372,1.7539,1.7546,1.7552,1.7673,1.7637,1.7778,1.7722,1.7658,1.7718,1.7716,1.782,1.7834,1.7869,1.7991,1.7998,1.793,1.7935,1.7938,1.7941,0,0,0,0,0,0,0,1.7344,1.7365,1.7568,1.7542,1.755,1.7562,1.758,1.7664,1.7745,1.7663,1.7667,1.7686,1.7823,1.786,1.7873,1.8001,1.793,1.7937,1.7942,1.7945,1.8196,1.8198,0,0,0,0,0,0,1.7326,1.7357,1.7562,1.7573,1.7448,1.7568,1.7589,1.7635,1.7744,1.7759,1.7687,1.7688,1.7847,1.7863,1.7879,1.7978,1.7938,1.7946,1.7951,1.8195,1.8197,1.8199,0,0,0,0,0,0,1.732,1.7344,1.7556,1.7466,1.7494,1.7574,1.7627,1.7639,1.7677,1.7762,1.7777,1.771,1.7847,1.7868,1.7957,1.7985,1.795,1.7957,1.8193,1.8195,1.8198,1.8177,0,0,0,0,0,0,1.7312,1.7342,1.7372,1.7466,1.7498,1.763,1.7628,1.7644,1.769,1.7693,1.7788,1.7802,1.7847,1.7944,1.7965,1.7996,1.7964,1.819,1.8194,1.8197,1.8176,1.8179,1.8182,0,0,0,0,0,1.7302,1.736,1.7374,1.7398,1.7538,1.7631,1.765,1.77,1.7693,1.7724,1.7779,1.7799,1.7979,1.7953,1.7976,1.801,1.8189,1.8193,1.8197,1.8175,1.8178,1.8181,0,0,0,0,0,0,1.7268,1.7373,1.7389,1.748,1.7546,1.7639,1.768,1.7702,1.7772,1.7772,1.7832,1.7853,1.7937,1.7983,1.7952,1.8092,1.8084,1.8093,1.8059,1.8064,1.8066,1.8054,1.7971,0,0,0,0,0,1.7271,1.7337,1.7426,1.7497,1.753,1.7599,1.7641,1.7674,1.7746,1.7774,1.7836,1.7904,1.7976,1.8023,1.8094,1.8183,1.8204,1.8218,1.8221,1.8223,1.8229,1.828,1.8287,1.8211,1.8211,1.8211,0,0,1.7278,1.7344,1.7382,1.7492,1.7547,1.7615,1.7622,1.7694,1.7744,1.7785,1.7873,1.792,1.8001,1.809,1.8132,1.8131,1.8255,1.8227,1.8228,1.8234,1.8284,1.8291,1.8298,1.8214,1.8214,1.8213,0,0,1.7325,1.7382,1.7447,1.7502,1.7585,1.7631,1.7646,1.7736,1.7769,1.7858,1.7889,1.7951,1.8074,1.813,1.8174,1.8242,1.8263,1.8264,1.8279,1.8327,1.8333,1.8338,1.8362,1.837,1.827,1.827,1.827,0,1.7323,1.7426,1.7478,1.7548,1.7595,1.7634,1.7701,1.7752,1.7854,1.7886,1.7883,1.8037,1.8095,1.8197,1.8213,1.8248,1.8268,1.8253,1.8328,1.8334,1.834,1.8363,1.8372,1.827,1.827,1.827,1.827,0,1.742,1.749,1.7533,1.763,1.7683,1.775,1.7813,1.786,1.7888,1.7934,1.8023,1.8093,1.8179,1.8206,1.8234,1.8313,1.8309,1.8316,1.8309,1.8345,1.8369,1.8378,1.8269,1.8269,1.8269,1.827,0,0,1.7451,1.7575,1.759,1.7634,1.7728,1.7784,1.7854,1.7937,1.7976,1.8045,1.8105,1.8207,1.8214,1.8265,1.83,1.8342,1.8391,1.8345,1.8347,1.835,1.8481,1.8475,1.8485,1.8406,1.8408,1.8409,1.8474,0,1.7509,1.7634,1.7683,1.7785,1.7851,1.7889,1.795,1.8014,1.8059,1.8122,1.8172,1.8243,1.8247,1.8278,1.8321,1.8376,1.8418,1.8372,1.8462,1.8465,1.844,1.8497,1.8491,1.8549,1.8484,1.8485,1.8486,0,1.7595,1.7664,1.7772,1.7858,1.7888,1.7941,1.8021,1.808,1.8154,1.8184,1.824,1.8273,1.8347,1.8335,1.8439,1.8406,1.8446,1.8479,1.8482,1.8492,1.8477,1.8508,1.8569,1.8577,1.8501,1.85,1.8499,0,1.7605,1.7726,1.7806,1.7843,1.7946,1.7982,1.8027,1.8099,1.8146,1.8216,1.8247,1.8325,1.8367,1.8427,1.848,1.8467,1.8578,1.8571,1.8605,1.8604,1.8627,1.8625,1.8694,1.8653,1.8653,1.8653,1.8653,0,1.7666,1.7731,1.7812,1.7862,1.7935,1.7991,1.8062,1.8109,1.8174,1.8233,1.8271,1.8326,1.8392,1.8456,1.8498,1.8577,1.8596,1.8623,1.8633,1.8619,1.8616,1.8646,1.8643,1.8655,1.8655,1.8654,1.8654,0,1.769,1.7748,1.7838,1.7927,1.7951,1.8001,1.8078,1.8128,1.8174,1.8249,1.8269,1.8342,1.8419,1.8478,1.8578,1.8606,1.869,1.8701,1.8665,1.867,1.8701,1.8697,1.8792,1.8807,1.8755,1.8756,1.8756,0,1.7725,1.7776,1.787,1.7912,1.7956,1.8024,1.8071,1.8128,1.8176,1.8264,1.8303,1.8382,1.8448,1.857,1.8632,1.8709,1.8722,1.875,1.8734,1.8718,1.8722,1.8718,1.8723,1.8752,1.8752,1.8752,1.8752,0,1.778,1.7806,1.7873,1.795,1.8005,1.8069,1.8133,1.8165,1.8233,1.8285,1.8364,1.8415,1.8517,1.8595,1.8678,1.8725,1.875,1.8757,1.8769,1.8755,1.8732,1.8744,1.867,1.8755,1.8754,1.8754,1.8754,1.8754,1.7811,1.7857,1.7931,1.8004,1.8058,1.8117,1.8168,1.822,1.8286,1.8373,1.8403,1.8484,1.8557,1.867,1.8717,1.8782,1.8782,1.88,1.8804,1.8807,1.8806,1.8721,1.8797,1.8797,1.8797,1.8797,1.8797,0,1.7868,1.7917,1.7983,1.8071,1.8129,1.8147,1.8219,1.8266,1.8337,1.8402,1.8467,1.8557,1.8633,1.8701,1.878,1.8818,1.8832,1.8837,1.8835,1.8845,1.8801,1.8783,1.8825,1.8825,1.8825,1.8825,1.8825,1.8825,1.7904,1.7983,1.8018,1.8124,1.8173,1.8252,1.8292,1.8346,1.8399,1.8498,1.8561,1.8604,1.8671,1.8755,1.8826,1.8844,1.8871,1.8874,1.8894,1.8852,1.8848,1.8845,1.8828,1.8879,1.8879,1.8933,1.8934,1.8934]},{"header":{"parameterUnit":"m.s-1","parameterCategory":1,"la1":30.2991,"la2":30.254,"lo1":-89.0895,"lo2":-89.0444,"dy":0.0017,"dx":0.0017,"nx":28,"ny":28,"refTime":"2024-07-11T21:00:00:Z","depth":0,"parameterNumber":3,"parameterNumberName":"V-component_of_WINDS"},"data":[0,0,0,0,0,0,0,0,0,0,0,0,0,0,0,0,0,0,0,0,0,0,0,0,0,0,0,0,0,0,0,0,0,0,0,0,0,0,0,0,0,0,0,0,0,0,0,0,0,0,0,0,0,0,0,0,0,0,3.7659,3.7659,0,3.7671,3.7672,3.7672,3.7629,3.7627,3.7626,3.7625,3.7636,3.7637,3.7639,0,0,0,0,0,0,0,0,0,0,0,0,0,3.7594,3.7595,3.7658,3.7659,3.7659,3.7671,3.7672,3.7672,3.7629,3.7627,3.7626,3.7624,3.7635,3.7637,3.7639,0,0,0,0,0,0,0,0,0,0,0,0,0,3.7616,3.7595,3.7658,3.7639,3.7637,3.7671,3.7672,3.7672,3.7629,3.7627,3.7625,3.7623,3.7635,3.7637,3.7639,3.7692,0,0,3.7646,3.7647,0,0,0,0,0,0,0,0,3.7614,3.7618,3.7642,3.764,3.7639,3.7646,3.7653,3.7678,3.763,3.7632,3.7625,3.7622,3.7641,3.7642,3.7649,3.7692,3.7693,3.7646,3.7647,3.7648,3.7649,0,0,0,0,0,0,0,3.7613,3.7617,3.7663,3.7642,3.764,3.7629,3.763,3.7657,3.7647,3.7632,3.7629,3.7631,3.7639,3.7647,3.7649,3.7693,3.7646,3.7648,3.7649,3.765,3.7778,3.778,0,0,0,0,0,0,3.7614,3.7616,3.7663,3.7664,3.7622,3.7631,3.7632,3.7646,3.7647,3.7645,3.7633,3.7629,3.7644,3.7646,3.7649,3.771,3.7648,3.765,3.7652,3.7776,3.7779,3.7781,0,0,0,0,0,0,3.7613,3.7619,3.7663,3.7639,3.7644,3.7635,3.765,3.7647,3.7654,3.7647,3.7645,3.7642,3.7642,3.7646,3.7681,3.771,3.7651,3.7653,3.7774,3.7777,3.778,3.7833,0,0,0,0,0,0,3.7611,3.7619,3.764,3.764,3.7645,3.7696,3.7652,3.7649,3.7659,3.7654,3.7656,3.7654,3.7641,3.7678,3.7683,3.7712,3.7655,3.7771,3.7775,3.7779,3.7828,3.7837,3.7845,0,0,0,0,0,3.7609,3.7654,3.7641,3.7647,3.7671,3.7697,3.77,3.7685,3.7661,3.7681,3.7677,3.7654,3.7706,3.7682,3.7688,3.7717,3.7769,3.7774,3.7779,3.7825,3.7836,3.7845,0,0,0,0,0,0,3.7656,3.7653,3.7639,3.7685,3.7692,3.769,3.7715,3.7697,3.771,3.7705,3.7685,3.7686,3.7725,3.7724,3.7698,3.7767,3.7733,3.7739,3.7766,3.7777,3.7785,3.7784,3.7657,0,0,0,0,0,3.7672,3.7694,3.769,3.7731,3.7735,3.7725,3.7736,3.7723,3.7729,3.7732,3.7729,3.7735,3.7753,3.7765,3.778,3.7828,3.7827,3.7851,3.7859,3.7866,3.7871,3.7896,3.7906,3.7796,3.7796,3.7796,0,0,3.7704,3.7705,3.7721,3.774,3.7744,3.7767,3.7727,3.7753,3.7769,3.7735,3.7769,3.7767,3.7772,3.7814,3.7832,3.7815,3.7901,3.7872,3.7878,3.7879,3.7901,3.7912,3.7921,3.78,3.7799,3.7798,0,0,3.7775,3.7779,3.7812,3.7817,3.7824,3.7816,3.7825,3.7825,3.7823,3.7857,3.7831,3.785,3.7881,3.7885,3.7891,3.7963,3.7943,3.7969,3.8011,3.8035,3.8044,3.8052,3.8076,3.8086,3.7974,3.7974,3.7974,0,3.7814,3.7848,3.7832,3.7859,3.7868,3.7839,3.7873,3.7878,3.7889,3.7895,3.7876,3.7913,3.7915,3.7957,3.7974,3.7981,3.7988,3.7968,3.8044,3.8052,3.8058,3.8082,3.8091,3.7977,3.7977,3.7977,3.7976,0,3.7895,3.7919,3.7946,3.7958,3.797,3.8,3.7988,3.8001,3.7988,3.7983,3.8016,3.8017,3.8032,3.8041,3.8028,3.8081,3.807,3.8048,3.8013,3.8072,3.8094,3.8103,3.7982,3.7981,3.798,3.7979,0,0,3.7996,3.7998,3.8008,3.8013,3.8018,3.8035,3.8064,3.8079,3.8091,3.81,3.8122,3.8149,3.8128,3.8136,3.8123,3.8144,3.82,3.8119,3.8119,3.8134,3.8257,3.8273,3.8284,3.8186,3.8188,3.8189,3.8256,0,3.8065,3.8114,3.8101,3.815,3.8171,3.8143,3.8168,3.8173,3.8169,3.8185,3.818,3.8199,3.817,3.8174,3.8194,3.8189,3.8224,3.8184,3.8206,3.8207,3.8206,3.8296,3.8313,3.8376,3.8265,3.8266,3.8267,0,3.8152,3.8164,3.8216,3.8216,3.8225,3.8247,3.826,3.8276,3.8281,3.8276,3.8284,3.8267,3.8294,3.826,3.8296,3.8269,3.8277,3.8276,3.8278,3.8279,3.8241,3.8298,3.8396,3.8405,3.8281,3.828,3.8279,0,3.8219,3.8248,3.8283,3.8288,3.829,3.8306,3.8307,3.831,3.832,3.8331,3.8337,3.835,3.8358,3.8368,3.8355,3.8331,3.8393,3.8357,3.8389,3.8389,3.8402,3.8402,3.8502,3.8409,3.8409,3.8409,3.8408,0,3.8297,3.8329,3.8313,3.8334,3.8369,3.8352,3.8388,3.8386,3.8388,3.8408,3.8385,3.8403,3.8385,3.8401,3.8391,3.8422,3.8426,3.8422,3.8419,3.8424,3.8424,3.8429,3.8424,3.8411,3.8411,3.841,3.841,0,3.8377,3.8368,3.8403,3.8402,3.8403,3.8429,3.8427,3.8446,3.844,3.8465,3.847,3.846,3.8478,3.8466,3.8484,3.8477,3.8518,3.8509,3.8517,3.8514,3.8546,3.8543,3.8653,3.8666,3.8564,3.8565,3.8566,0,3.8427,3.8452,3.8453,3.8465,3.8468,3.8488,3.8498,3.8482,3.8493,3.85,3.8518,3.8535,3.8547,3.8578,3.8571,3.8585,3.8576,3.8613,3.8578,3.8582,3.8576,3.8574,3.8576,3.862,3.8622,3.8623,3.8623,0,3.8517,3.8511,3.8527,3.8541,3.8554,3.8564,3.8572,3.8583,3.8567,3.8581,3.86,3.8609,3.8628,3.8645,3.8656,3.8656,3.8637,3.8635,3.8643,3.8648,3.8651,3.8649,3.8536,3.8632,3.8631,3.8631,3.863,3.863,3.8583,3.8604,3.8608,3.8626,3.8631,3.8639,3.8656,3.8652,3.8668,3.8683,3.8672,3.8695,3.8698,3.8711,3.8714,3.8731,3.8715,3.8727,3.873,3.8733,3.8737,3.8649,3.8733,3.8733,3.8732,3.8732,3.8732,0,3.8671,3.8673,3.869,3.8702,3.8716,3.8697,3.8705,3.8718,3.8738,3.8743,3.8756,3.8778,3.8793,3.8789,3.8803,3.8817,3.8808,3.8821,3.8819,3.882,3.875,3.8742,3.8828,3.8828,3.8828,3.8828,3.8828,3.8828,3.8719,3.8752,3.8746,3.8781,3.8781,3.8804,3.881,3.8817,3.8821,3.8846,3.8859,3.8856,3.8857,3.8871,3.8884,3.8882,3.8888,3.8904,3.8899,3.8834,3.8825,3.8816,3.8808,3.8906,3.8906,3.8967,3.8968,3.8968]}]]